EA7RX-4 Weather Reports


time (UTC)temp
F
wind
direction
speed
knots
gust
knots
rain 1hr
in
rain 24hr
in
rain mn
in
humidity
%
barometer
mb
20260508033003 46 104 2.6 6.1 0.00 0.18 0.00 84 1009.1
20260508032003 46 106 3.5 6.1 0.00 0.18 0.00 84 1009.0
20260508031003 46 100 2.6 3.5 0.00 0.18 0.00 85 1008.8
20260508030003 46 103 3.5 6.1 0.00 0.18 0.00 86 1008.9
20260508025003 46 95 4.3 7.0 0.00 0.18 0.00 86 1008.8
20260508024003 46 93 4.3 7.8 0.00 0.18 0.00 86 1009.0
20260508023003 46 108 3.5 7.8 0.00 0.18 0.00 86 1009.0
20260508022003 46 108 4.3 7.8 0.00 0.18 0.00 86 1009.0
20260508021003 46 108 4.3 7.8 0.00 0.18 0.00 86 1009.1
20260508020003 46 109 4.3 7.8 0.00 0.18 0.00 86 1009.5
20260508015003 46 108 5.2 8.7 0.00 0.18 0.00 86 1009.3
20260508014003 46 106 5.2 7.8 0.00 0.18 0.00 86 1009.4
20260508013003 46 102 5.2 8.7 0.00 0.18 0.00 86 1009.3
20260508012003 46 105 5.2 7.8 0.00 0.18 0.00 86 1009.7
20260508011003 46 94 5.2 7.8 0.00 0.18 0.00 85 1009.8
20260508010003 46 101 6.1 7.8 0.00 0.18 0.00 85 1010.1
20260508005003 46 103 6.1 8.7 0.00 0.18 0.00 85 1010.2
20260508004003 46 107 6.1 8.7 0.00 0.18 0.00 85 1010.2
20260508003003 46 107 4.3 7.0 0.00 0.18 0.00 85 1010.4
20260508002003 47 99 4.3 7.0 0.00 0.18 0.00 84 1010.6
20260508001003 47 94 4.3 7.8 0.00 0.18 0.00 84 1010.5
20260508000003 47 105 5.2 8.7 0.00 0.18 0.00 84 1010.6
20260507235003 47 108 5.2 8.7 0.00 0.18 0.00 84 1010.7
20260507234003 47 107 5.2 7.8 0.00 0.18 0.00 85 1010.7
20260507233003 46 100 5.2 8.7 0.00 0.18 0.00 85 1010.9
20260507232003 46 100 5.2 7.8 0.00 0.18 0.00 85 1010.8
20260507231003 47 101 6.1 8.7 0.00 0.18 0.00 85 1010.9
20260507230003 47 110 5.2 8.7 0.00 0.18 0.00 84 1010.9
20260507225003 47 113 5.2 7.8 0.00 0.18 0.00 86 1011.3
20260507224003 47 101 6.1 9.6 0.00 0.18 0.00 86 1011.3
20260507223003 47 116 5.2 7.8 0.00 0.18 0.00 87 1011.0
20260507222003 47 120 6.1 8.7 0.00 0.18 0.00 86 1011.2
20260507221003 48 122 6.1 8.7 0.00 0.18 0.00 85 1011.0
20260507220003 48 134 6.1 9.6 0.00 0.18 0.00 84 1011.2
20260507215003 49 142 6.1 11.3 0.00 0.18 0.18 83 1011.0
20260507214003 49 125 7.0 11.3 0.00 0.18 0.18 83 1010.9
20260507213003 49 119 6.1 11.3 0.00 0.18 0.18 84 1010.7
20260507212003 49 126 7.0 11.3 0.00 0.18 0.18 84 1010.7
20260507211003 49 132 6.1 12.2 0.00 0.18 0.18 83 1010.6
20260507210003 50 125 6.1 11.3 0.00 0.18 0.18 83 1010.7
20260507205003 49 129 5.2 9.6 0.00 0.18 0.18 83 1010.3
20260507204003 49 124 7.0 12.2 0.00 0.18 0.18 83 1010.2
20260507203003 50 132 7.0 12.2 0.00 0.18 0.18 83 1010.1
20260507202003 50 126 7.0 13.0 0.00 0.18 0.18 84 1010.1
20260507201003 50 121 7.0 13.9 0.00 0.18 0.18 84 1010.0
20260507200003 50 131 7.8 13.9 0.00 0.18 0.18 84 1009.6
20260507195003 51 124 8.7 13.9 0.00 0.18 0.18 83 1009.6
20260507194003 51 120 8.7 13.9 0.00 0.18 0.18 81 1009.4
20260507193003 51 117 7.8 12.2 0.00 0.18 0.18 77 1009.6
20260507192003 51 120 4.3 9.6 0.00 0.18 0.18 78 1009.6
20260507191003 51 107 3.5 7.8 0.00 0.18 0.18 77 1009.1
20260507190004 52 114 4.3 7.8 0.00 0.18 0.18 76 1009.2
20260507185003 53 110 3.5 6.1 0.00 0.18 0.18 75 1009.1
20260507184003 54 105 2.6 5.2 0.00 0.18 0.18 74 1008.8
20260507183003 54 98 2.6 5.2 0.00 0.18 0.18 73 1008.8
20260507182003 54 90 2.6 5.2 0.00 0.18 0.18 70 1008.8
20260507181003 54 93 3.5 6.1 0.00 0.18 0.18 71 1008.6
20260507180003 54 93 4.3 7.8 0.02 0.18 0.18 68 1009.0
20260507175003 54 85 4.3 7.8 0.06 0.18 0.18 68 1008.8
20260507174003 54 62 3.5 7.0 0.09 0.18 0.18 64 1008.5
20260507173003 53 59 3.5 8.7 0.11 0.18 0.18 64 1008.5
20260507172003 52 46 7.0 12.2 0.11 0.18 0.18 70 1008.6
20260507171003 53 65 6.1 18.2 0.11 0.18 0.18 63 1008.4
20260507170003 51 173 1.7 5.2 0.09 0.16 0.16 65 1009.4
20260507165003 51 189 1.7 7.8 0.05 0.12 0.12 73 1009.5
20260507164003 51 250 9.6 16.5 0.02 0.09 0.09 76 1010.1
20260507163003 51 259 4.3 8.7 0.00 0.07 0.07 74 1009.6
20260507162003 51 267 7.0 12.2 0.00 0.07 0.07 72 1009.6
20260507161003 53 277 8.7 14.8 0.00 0.07 0.07 69 1009.6
20260507160003 54 288 6.1 13.0 0.00 0.07 0.07 63 1009.7
20260507155003 55 307 6.1 11.3 0.00 0.07 0.07 62 1009.6
20260507154003 55 318 6.1 11.3 0.00 0.07 0.07 60 1009.2
20260507153003 55 354 4.3 7.0 0.00 0.07 0.07 64 1009.1
20260507152003 55 340 6.1 8.7 0.00 0.07 0.07 63 1009.3
20260507151003 55 343 5.2 8.7 0.00 0.07 0.07 65 1009.3
20260507150003 55 5 4.3 9.6 0.00 0.07 0.07 64 1009.4
20260507145003 55 348 5.2 11.3 0.00 0.07 0.07 65 1009.2
20260507144003 54 6 7.0 12.2 0.00 0.07 0.07 63 1009.2
20260507143003 54 348 6.1 13.9 0.00 0.07 0.07 69 1009.1
20260507142003 56 3 4.3 8.7 0.00 0.07 0.07 69 1009.2
20260507141003 56 68 2.6 7.0 0.00 0.07 0.07 68 1009.4
20260507140003 56 89 3.5 7.0 0.00 0.07 0.07 73 1009.5
20260507135003 55 83 4.3 7.0 0.01 0.07 0.07 72 1009.5
20260507134003 53 94 2.6 3.5 0.01 0.07 0.07 79 1009.7
20260507133003 53 102 3.5 6.1 0.04 0.07 0.07 75 1009.7
20260507132003 53 127 4.3 8.7 0.07 0.07 0.07 75 1009.7
20260507131003 52 134 5.2 13.9 0.07 0.07 0.07 79 1009.6
20260507130003 52 128 10.4 16.5 0.07 0.07 0.07 78 1009.2
20260507125003 51 129 7.8 13.0 0.06 0.06 0.06 84 1009.3
20260507124003 51 134 9.6 16.5 0.06 0.06 0.06 82 1009.6
20260507123003 51 162 13.0 25.2 0.03 0.03 0.03 83 1009.6
20260507122004 54 139 11.3 20.0 0.00 0.00 0.00 67 1009.4
20260507121003 54 147 11.3 16.5 0.00 0.00 0.00 71 1009.0
20260507120004 56 160 12.2 20.0 0.00 0.00 0.00 70 1009.0
20260507115003 58 140 11.3 19.1 0.00 0.00 0.00 63 1008.5
20260507114003 59 152 8.7 14.8 0.00 0.00 0.00 61 1008.6
20260507113003 59 138 9.6 16.5 0.00 0.00 0.00 61 1008.9
20260507112003 60 144 7.8 13.9 0.00 0.00 0.00 58 1008.9
20260507111003 60 129 9.6 15.6 0.00 0.00 0.00 58 1009.2
20260507110003 62 137 5.2 11.3 0.00 0.00 0.00 58 1009.2
20260507105003 60 150 7.0 13.9 0.00 0.00 0.00 60 1009.4
20260507104003 61 157 7.0 13.0 0.00 0.00 0.00 57 1009.3
20260507103003 59 143 7.8 14.8 0.00 0.00 0.00 63 1009.5
20260507102003 58 132 8.7 14.8 0.00 0.00 0.00 63 1009.4
20260507101003 58 135 7.8 14.8 0.00 0.00 0.00 64 1009.6
20260507100003 58 154 8.7 14.8 0.00 0.00 0.00 62 1009.8
20260507095003 59 132 8.7 13.0 0.00 0.00 0.00 62 1010.1
20260507094003 59 126 7.8 13.9 0.00 0.00 0.00 62 1010.0
20260507093003 58 113 8.7 16.5 0.00 0.00 0.00 66 1009.8
20260507092003 57 140 7.0 13.9 0.00 0.00 0.00 65 1009.8
20260507091003 56 140 7.0 13.9 0.00 0.00 0.00 71 1009.7
20260507090004 57 118 6.1 13.9 0.00 0.00 0.00 67 1009.8
20260507085003 56 131 4.3 9.6 0.00 0.00 0.00 67 1010.0
20260507084003 56 147 5.2 11.3 0.00 0.00 0.00 67 1009.6
20260507083003 55 139 6.1 9.6 0.00 0.00 0.00 68 1010.0
20260507082003 55 144 5.2 12.2 0.00 0.00 0.00 68 1009.7
20260507081003 55 153 5.2 9.6 0.00 0.00 0.00 68 1009.8
20260507080003 55 122 5.2 11.3 0.00 0.00 0.00 68 1009.6
20260507075003 55 137 2.6 7.0 0.00 0.00 0.00 69 1009.7
20260507074003 53 112 2.6 6.1 0.00 0.00 0.00 72 1009.7
20260507073003 54 114 1.7 5.2 0.00 0.00 0.00 70 1009.8
20260507072003 53 86 0.9 5.2 0.00 0.00 0.00 69 1009.5
20260507071003 52 74 0.9 5.2 0.00 0.00 0.00 73 1009.8
20260507070005 51 46 1.7 5.2 0.00 0.00 0.00 75 1009.5
20260507065003 51 53 1.7 5.2 0.00 0.00 0.00 75 1009.4
20260507064003 51 48 1.7 5.2 0.00 0.00 0.00 77 1009.2
20260507063003 50 32 2.6 5.2 0.00 0.00 0.00 78 1009.4
20260507062003 50 31 1.7 3.5 0.00 0.00 0.00 77 1009.2
20260507061003 49 41 1.7 5.2 0.00 0.00 0.00 78 1009.2
20260507060003 49 37 2.6 5.2 0.00 0.00 0.00 79 1009.0
20260507055003 49 23 2.6 5.2 0.00 0.00 0.00 78 1008.9
20260507054003 49 39 3.5 6.1 0.00 0.00 0.00 79 1009.0
20260507053003 49 35 2.6 6.1 0.00 0.00 0.00 80 1008.9
20260507052003 49 38 3.5 7.0 0.00 0.00 0.00 80 1008.8
20260507051003 49 37 4.3 7.0 0.00 0.00 0.00 80 1008.8
20260507050003 49 38 3.5 6.1 0.00 0.00 0.00 80 1008.6
20260507045003 49 43 2.6 5.2 0.00 0.00 0.00 79 1008.8
20260507044003 50 55 1.7 6.1 0.00 0.00 0.00 79 1008.8
20260507043003 50 69 1.7 6.1 0.00 0.00 0.00 78 1008.5
20260507042003 50 56 3.5 6.1 0.00 0.00 0.00 78 1009.0
20260507041003 50 45 2.6 6.1 0.00 0.00 0.00 79 1008.9
20260507040003 50 52 1.7 5.2 0.00 0.00 0.00 79 1008.9
20260507035003 50 72 1.7 5.2 0.00 0.00 0.00 79 1008.9
20260507034003 50 94 3.5 7.0 0.00 0.00 0.00 79 1008.8